Time,TemperatureF,DewpointF,PressureIn,WindDirection,WindDirectionDegrees,WindSpeedMPH,WindSpeedGustMPH,Humidity,HourlyPrecipIn,Conditions,Clouds,dailyrainin,SoftwareType,DateUTC
2013-05-24 00:02:00,74.0,-99.9,-100.00,SSE,151,2.0,4.0,-999,-99.99,,,-99.99,,2013-05-24 06:02:00,
2013-05-24 00:12:00,74.0,-99.9,-100.00,SSE,151,2.0,4.0,-999,-99.99,,,-99.99,,2013-05-24 06:12:00,
2013-05-24 00:22:00,74.0,-99.9,-100.00,SW,228,3.0,5.0,-999,-99.99,,,-99.99,,2013-05-24 06:22:00,
2013-05-24 00:32:00,74.0,-99.9,-100.00,SW,228,3.0,5.0,-999,-99.99,,,-99.99,,2013-05-24 06:32:00,
2013-05-24 02:22:00,73.0,-99.9,-100.00,SSW,203,2.0,3.0,-999,-99.99,,,-99.99,,2013-05-24 08:22:00,
2013-05-24 02:33:00,73.0,-99.9,-100.00,SSW,203,2.0,3.0,-999,-99.99,,,-99.99,,2013-05-24 08:33:00,
2013-05-24 03:22:00,70.0,-99.9,-100.00,SW,215,7.0,8.0,-999,-99.99,,,-99.99,,2013-05-24 09:22:00,
2013-05-24 03:33:00,70.0,-99.9,-100.00,SW,215,7.0,8.0,-999,-99.99,,,-99.99,,2013-05-24 09:33:00,
2013-05-24 03:50:00,69.0,-99.9,-100.00,SW,215,6.0,6.0,-999,-99.99,,,-99.99,,2013-05-24 09:50:00,
2013-05-24 04:33:00,69.0,-99.9,-100.00,SW,215,6.0,6.0,-999,-99.99,,,-99.99,,2013-05-24 10:33:00,
2013-05-24 04:40:00,66.0,-99.9,-100.00,ESE,116,1.0,9.0,-999,-99.99,,,-99.99,,2013-05-24 10:40:00,
2013-05-24 04:42:00,69.0,-99.9,-100.00,SW,215,6.0,6.0,-999,-99.99,,,-99.99,,2013-05-24 10:42:00,
2013-05-24 05:23:00,66.0,-99.9,-100.00,ESE,116,1.0,9.0,-999,-99.99,,,-99.99,,2013-05-24 11:23:00,
2013-05-24 05:32:00,66.0,-99.9,-100.00,ESE,116,1.0,9.0,-999,-99.99,,,-99.99,,2013-05-24 11:32:00,
2013-05-24 06:40:00,70.0,-99.9,-100.00,WSW,244,2.0,2.0,-999,-99.99,,,-99.99,,2013-05-24 12:40:00,
2013-05-24 07:20:00,76.0,-99.9,-100.00,SW,225,2.0,4.0,-999,-99.99,,,-99.99,,2013-05-24 13:20:00,
2013-05-24 07:22:00,70.0,-99.9,-100.00,WSW,244,2.0,2.0,-999,-99.99,,,-99.99,,2013-05-24 13:22:00,
2013-05-24 07:32:00,70.0,-99.9,-100.00,WSW,244,2.0,2.0,-999,-99.99,,,-99.99,,2013-05-24 13:32:00,
2013-05-24 07:50:00,80.0,-99.9,-100.00,SW,220,5.0,6.0,-999,-99.99,,,-99.99,,2013-05-24 13:50:00,
2013-05-24 07:52:00,72.0,-99.9,-100.00,North,354,1.0,4.0,-999,-99.99,,,-99.99,,2013-05-24 13:52:00,
2013-05-24 08:02:00,76.0,-99.9,-100.00,SW,225,2.0,4.0,-999,-99.99,,,-99.99,,2013-05-24 14:02:00,
2013-05-24 08:11:00,76.0,-99.9,-100.00,SW,225,2.0,4.0,-999,-99.99,,,-99.99,,2013-05-24 14:11:00,
2013-05-24 08:32:00,80.0,-99.9,-100.00,SW,220,5.0,6.0,-999,-99.99,,,-99.99,,2013-05-24 14:32:00,
2013-05-24 08:42:00,80.0,-99.9,-100.00,SW,220,5.0,6.0,-999,-99.99,,,-99.99,,2013-05-24 14:42:00,
2013-05-24 09:33:00,83.0,-99.9,-100.00,SSW,206,4.0,7.0,-999,-99.99,,,-99.99,,2013-05-24 15:33:00,
2013-05-24 09:40:00,85.0,-99.9,-100.00,SW,217,5.0,7.0,-999,-99.99,,,-99.99,,2013-05-24 15:40:00,
2013-05-24 09:43:00,83.0,-99.9,-100.00,SSW,206,4.0,7.0,-999,-99.99,,,-99.99,,2013-05-24 15:43:00,
2013-05-24 09:53:00,83.0,-99.9,-100.00,SSW,206,4.0,7.0,-999,-99.99,,,-99.99,,2013-05-24 15:53:00,
2013-05-24 10:22:00,85.0,-99.9,-100.00,SW,217,5.0,7.0,-999,-99.99,,,-99.99,,2013-05-24 16:22:00,
2013-05-24 10:33:00,85.0,-99.9,-100.00,SW,217,5.0,7.0,-999,-99.99,,,-99.99,,2013-05-24 16:33:00,
2013-05-24 11:32:00,87.0,-99.9,-100.00,SW,228,4.0,5.0,-999,-99.99,,,-99.99,,2013-05-24 17:32:00,
2013-05-24 11:42:00,87.0,-99.9,-100.00,SW,228,4.0,5.0,-999,-99.99,,,-99.99,,2013-05-24 17:42:00,
2013-05-24 11:52:00,87.0,-99.9,-100.00,SW,228,4.0,5.0,-999,-99.99,,,-99.99,,2013-05-24 17:52:00,
2013-05-24 13:32:00,93.0,-99.9,-100.00,South,180,1.0,3.0,-999,-99.99,,,-99.99,,2013-05-24 19:32:00,
2013-05-24 13:42:00,93.0,-99.9,-100.00,South,180,1.0,3.0,-999,-99.99,,,-99.99,,2013-05-24 19:42:00,
2013-05-24 13:52:00,93.0,-99.9,-100.00,South,180,1.0,3.0,-999,-99.99,,,-99.99,,2013-05-24 19:52:00,
2013-05-24 14:10:00,96.0,-99.9,-100.00,ESE,106,4.0,4.0,-999,-99.99,,,-99.99,,2013-05-24 20:10:00,
2013-05-24 14:30:00,94.0,-99.9,-100.00,North,350,1.0,3.0,-999,-99.99,,,-99.99,,2013-05-24 20:30:00,
2013-05-24 14:52:00,96.0,-99.9,-100.00,ESE,106,4.0,4.0,-999,-99.99,,,-99.99,,2013-05-24 20:52:00,
2013-05-24 15:02:00,96.0,-99.9,-100.00,ESE,106,4.0,4.0,-999,-99.99,,,-99.99,,2013-05-24 21:02:00,
2013-05-24 15:22:00,94.0,-99.9,-100.00,North,350,1.0,3.0,-999,-99.99,,,-99.99,,2013-05-24 21:22:00,
2013-05-24 16:50:00,98.0,-99.9,-100.00,ENE,59,3.0,4.0,-999,-99.99,,,-99.99,,2013-05-24 22:50:00,
2013-05-24 16:52:00,98.0,-99.9,-100.00,NNE,30,1.0,4.0,-999,-99.99,,,-99.99,,2013-05-24 22:52:00,
2013-05-24 17:02:00,98.0,-99.9,-100.00,NNE,30,1.0,4.0,-999,-99.99,,,-99.99,,2013-05-24 23:02:00,
2013-05-24 17:22:00,99.0,-99.9,-100.00,SE,145,2.0,5.0,-999,-99.99,,,-99.99,,2013-05-24 23:22:00,
2013-05-24 17:32:00,98.0,-99.9,-100.00,ENE,59,3.0,4.0,-999,-99.99,,,-99.99,,2013-05-24 23:32:00,
2013-05-24 17:40:00,97.0,-99.9,-100.00,South,190,2.0,4.0,-999,-99.99,,,-99.99,,2013-05-24 23:40:00,
2013-05-24 17:42:00,98.0,-99.9,-100.00,ENE,59,3.0,4.0,-999,-99.99,,,-99.99,,2013-05-24 23:42:00,
2013-05-24 18:22:00,97.0,-99.9,-100.00,South,190,2.0,4.0,-999,-99.99,,,-99.99,,2013-05-25 00:22:00,
2013-05-24 18:32:00,97.0,-99.9,-100.00,South,190,2.0,4.0,-999,-99.99,,,-99.99,,2013-05-25 00:32:00,
2013-05-24 19:01:00,97.0,-99.9,-100.00,ESE,114,1.0,3.0,-999,-99.99,,,-99.99,,2013-05-25 01:01:00,
2013-05-24 19:11:00,97.0,-99.9,-100.00,ESE,114,1.0,3.0,-999,-99.99,,,-99.99,,2013-05-25 01:11:00,
2013-05-24 19:22:00,97.0,-99.9,-100.00,ESE,114,1.0,3.0,-999,-99.99,,,-99.99,,2013-05-25 01:22:00,
2013-05-24 21:02:00,89.0,-99.9,-100.00,SSW,204,3.0,4.0,-999,-99.99,,,-99.99,,2013-05-25 03:02:00,
2013-05-24 21:12:00,89.0,-99.9,-100.00,SSW,204,3.0,4.0,-999,-99.99,,,-99.99,,2013-05-25 03:12:00,
2013-05-24 21:22:00,89.0,-99.9,-100.00,SSW,204,3.0,4.0,-999,-99.99,,,-99.99,,2013-05-25 03:22:00,
2013-05-24 22:53:00,84.0,-99.9,-100.00,NE,38,5.0,5.0,-999,-99.99,,,-99.99,,2013-05-25 04:53:00,
2013-05-24 23:02:00,84.0,-99.9,-100.00,NE,38,5.0,5.0,-999,-99.99,,,-99.99,,2013-05-25 05:02:00,
2013-05-24 23:22:00,83.0,-99.9,-100.00,NNE,15,1.0,4.0,-999,-99.99,,,-99.99,,2013-05-25 05:22:00,
2013-05-24 23:32:00,83.0,-99.9,-100.00,NNE,15,1.0,4.0,-999,-99.99,,,-99.99,,2013-05-25 05:32:00,